Time,TemperatureF,DewpointF,PressureIn,WindDirection,WindDirectionDegrees,WindSpeedMPH,WindSpeedGustMPH,Humidity,HourlyPrecipIn,Conditions,Clouds,dailyrainin,SoftwareType,DateUTC
2013-08-23 00:12:00,72.7,69.0,30.05,SW,228,0.0,1.0,89,0.00,,,0.00,weatherlink.com 1.10,2013-08-23 04:12:00,
2013-08-23 00:27:00,72.8,70.0,30.05,SW,228,0.0,0.0,90,0.00,,,0.00,weatherlink.com 1.10,2013-08-23 04:27:00,
2013-08-23 00:42:00,72.8,70.0,30.06,SW,228,0.0,0.0,90,0.00,,,0.00,weatherlink.com 1.10,2013-08-23 04:42:00,
2013-08-23 00:57:00,72.5,70.0,30.07,SW,228,0.0,0.0,90,0.00,,,0.00,weatherlink.com 1.10,2013-08-23 04:57:00,
2013-08-23 01:12:00,72.2,70.0,30.07,SW,228,0.0,0.0,91,0.00,,,0.00,weatherlink.com 1.10,2013-08-23 05:12:00,
2013-08-23 01:33:00,71.9,70.0,30.07,SW,229,0.0,0.0,92,0.00,,,0.00,weatherlink.com 1.10,2013-08-23 05:33:00,
2013-08-23 01:42:00,72.0,70.0,30.07,SW,228,0.0,0.0,92,0.00,,,0.00,weatherlink.com 1.10,2013-08-23 05:42:00,
2013-08-23 01:57:00,71.8,69.0,30.06,SW,228,0.0,0.0,92,0.00,,,0.00,weatherlink.com 1.10,2013-08-23 05:57:00,
2013-08-23 02:12:00,71.9,70.0,30.06,SW,228,0.0,0.0,92,0.00,,,0.00,weatherlink.com 1.10,2013-08-23 06:12:00,
2013-08-23 02:27:00,71.8,69.0,30.06,SW,229,0.0,0.0,92,0.00,,,0.00,weatherlink.com 1.10,2013-08-23 06:27:00,
2013-08-23 02:42:00,71.7,69.0,30.05,SW,229,0.0,0.0,92,0.00,,,0.00,weatherlink.com 1.10,2013-08-23 06:42:00,
2013-08-23 02:57:00,71.4,69.0,30.05,SW,228,0.0,0.0,93,0.00,,,0.00,weatherlink.com 1.10,2013-08-23 06:57:00,
2013-08-23 03:12:00,71.1,69.0,30.04,SW,228,0.0,0.0,93,0.00,,,0.00,weatherlink.com 1.10,2013-08-23 07:12:00,
2013-08-23 03:27:00,70.9,69.0,30.04,SW,228,0.0,0.0,93,0.00,,,0.00,weatherlink.com 1.10,2013-08-23 07:27:00,
2013-08-23 03:42:00,70.7,69.0,30.05,SW,228,0.0,0.0,94,0.00,,,0.00,weatherlink.com 1.10,2013-08-23 07:42:00,
2013-08-23 03:57:00,70.7,69.0,30.04,SW,228,0.0,0.0,94,0.00,,,0.00,weatherlink.com 1.10,2013-08-23 07:57:00,
2013-08-23 04:12:00,70.7,69.0,30.05,SW,228,0.0,0.0,94,0.00,,,0.00,weatherlink.com 1.10,2013-08-23 08:12:00,
2013-08-23 04:27:00,70.6,69.0,30.04,SW,228,0.0,0.0,95,0.00,,,0.00,weatherlink.com 1.10,2013-08-23 08:27:00,
2013-08-23 04:42:00,70.5,69.0,30.05,SW,228,0.0,0.0,95,0.00,,,0.00,weatherlink.com 1.10,2013-08-23 08:42:00,
2013-08-23 04:57:00,70.2,69.0,30.05,SW,228,0.0,0.0,95,0.00,,,0.00,weatherlink.com 1.10,2013-08-23 08:57:00,
2013-08-23 05:12:00,70.2,69.0,30.05,SW,228,0.0,0.0,95,0.00,,,0.00,weatherlink.com 1.10,2013-08-23 09:12:00,
2013-08-23 05:27:00,70.2,69.0,30.05,SW,228,0.0,1.0,95,0.00,,,0.00,weatherlink.com 1.10,2013-08-23 09:27:00,
2013-08-23 05:42:00,70.3,69.0,30.05,ENE,64,0.0,1.0,95,0.00,,,0.00,weatherlink.com 1.10,2013-08-23 09:42:00,
2013-08-23 05:57:00,70.4,69.0,30.05,ENE,64,0.0,0.0,95,0.00,,,0.00,weatherlink.com 1.10,2013-08-23 09:57:00,
2013-08-23 06:12:00,70.5,69.0,30.06,ENE,64,0.0,0.0,95,0.00,,,0.00,weatherlink.com 1.10,2013-08-23 10:12:00,
2013-08-23 06:27:00,70.2,69.0,30.07,ENE,64,0.0,0.0,94,0.00,,,0.00,weatherlink.com 1.10,2013-08-23 10:27:00,
2013-08-23 06:42:00,69.9,69.0,30.07,ENE,63,0.0,0.0,95,0.00,,,0.00,weatherlink.com 1.10,2013-08-23 10:42:00,
2013-08-23 06:57:00,69.8,68.0,30.07,ENE,63,0.0,0.0,95,0.00,,,0.00,weatherlink.com 1.10,2013-08-23 10:57:00,
2013-08-23 07:12:00,69.8,68.0,30.07,ENE,63,0.0,0.0,95,0.00,,,0.00,weatherlink.com 1.10,2013-08-23 11:12:00,
2013-08-23 07:27:00,70.1,69.0,30.08,ENE,64,0.0,0.0,95,0.00,,,0.00,weatherlink.com 1.10,2013-08-23 11:27:00,
2013-08-23 07:43:00,70.4,69.0,30.09,West,281,0.0,0.0,95,0.00,,,0.00,weatherlink.com 1.10,2013-08-23 11:43:00,
2013-08-23 07:58:00,70.7,69.0,30.09,NW,324,0.0,1.0,95,0.00,,,0.00,weatherlink.com 1.10,2013-08-23 11:58:00,
2013-08-23 08:13:00,71.1,69.0,30.09,NNE,32,0.0,1.0,94,0.00,,,0.00,weatherlink.com 1.10,2013-08-23 12:13:00,
2013-08-23 08:28:00,71.7,70.0,30.09,NNE,32,0.0,1.0,93,0.00,,,0.00,weatherlink.com 1.10,2013-08-23 12:28:00,
2013-08-23 08:58:00,73.6,70.0,30.09,ENE,61,1.0,3.0,87,0.00,,,0.00,weatherlink.com 1.10,2013-08-23 12:58:00,
2013-08-23 09:13:00,74.5,69.0,30.09,SE,130,1.0,5.0,84,0.00,,,0.00,weatherlink.com 1.10,2013-08-23 13:13:00,
2013-08-23 09:28:00,75.4,69.0,30.09,ENE,64,1.0,6.0,81,0.00,,,0.00,weatherlink.com 1.10,2013-08-23 13:28:00,
2013-08-23 09:43:00,76.2,70.0,30.09,East,86,2.0,6.0,80,0.00,,,0.00,weatherlink.com 1.10,2013-08-23 13:43:00,
2013-08-23 09:58:00,76.1,70.0,30.09,East,79,2.0,6.0,80,0.00,,,0.00,weatherlink.com 1.10,2013-08-23 13:58:00,
2013-08-23 10:13:00,76.6,70.0,30.10,South,174,0.0,4.0,79,0.00,,,0.00,weatherlink.com 1.10,2013-08-23 14:13:00,
2013-08-23 10:28:00,77.8,70.0,30.11,SE,135,0.0,4.0,77,0.00,,,0.00,weatherlink.com 1.10,2013-08-23 14:28:00,
2013-08-23 10:43:00,78.4,70.0,30.10,SW,229,0.0,5.0,75,0.00,,,0.00,weatherlink.com 1.10,2013-08-23 14:43:00,
2013-08-23 10:58:00,79.5,71.0,30.10,NNE,13,2.0,3.0,74,0.00,,,0.00,weatherlink.com 1.10,2013-08-23 14:58:00,
2013-08-23 11:13:00,81.0,70.0,30.11,NNE,12,0.0,4.0,70,0.00,,,0.00,weatherlink.com 1.10,2013-08-23 15:13:00,
2013-08-23 11:28:00,82.0,71.0,30.11,SW,214,1.0,3.0,69,0.00,,,0.00,weatherlink.com 1.10,2013-08-23 15:28:00,
2013-08-23 11:43:00,82.7,71.0,30.10,ENE,65,0.0,4.0,67,0.00,,,0.00,weatherlink.com 1.10,2013-08-23 15:43:00,
2013-08-23 11:58:00,84.1,71.0,30.10,East,94,0.0,5.0,64,0.00,,,0.00,weatherlink.com 1.10,2013-08-23 15:58:00,
2013-08-23 12:13:00,84.9,69.0,30.10,NE,42,4.0,6.0,60,0.00,,,0.00,weatherlink.com 1.10,2013-08-23 16:13:00,
2013-08-23 12:28:00,84.7,70.0,30.10,South,169,1.0,6.0,61,0.00,,,0.00,weatherlink.com 1.10,2013-08-23 16:28:00,
2013-08-23 12:43:00,85.4,68.0,30.09,SE,138,1.0,7.0,57,0.00,,,0.00,weatherlink.com 1.10,2013-08-23 16:43:00,
2013-08-23 12:58:00,85.4,68.0,30.09,NE,55,3.0,5.0,57,0.00,,,0.00,weatherlink.com 1.10,2013-08-23 16:58:00,
2013-08-23 13:33:00,86.3,67.0,30.09,NNE,33,0.0,7.0,52,0.00,,,0.00,weatherlink.com 1.10,2013-08-23 17:33:00,
2013-08-23 13:43:00,87.5,68.0,30.08,NE,55,2.0,5.0,53,0.00,,,0.00,weatherlink.com 1.10,2013-08-23 17:43:00,
2013-08-23 13:58:00,87.8,69.0,30.08,ENE,65,1.0,6.0,53,0.00,,,0.00,weatherlink.com 1.10,2013-08-23 17:58:00,
2013-08-23 14:13:00,87.9,69.0,30.08,ENE,63,2.0,5.0,54,0.00,,,0.00,weatherlink.com 1.10,2013-08-23 18:13:00,
2013-08-23 14:28:00,87.8,69.0,30.08,NNW,333,2.0,6.0,53,0.00,,,0.00,weatherlink.com 1.10,2013-08-23 18:28:00,
2013-08-23 14:43:00,88.8,68.0,30.07,NE,56,3.0,7.0,50,0.00,,,0.00,weatherlink.com 1.10,2013-08-23 18:43:00,
2013-08-23 14:58:00,88.6,68.0,30.07,NNE,20,3.0,5.0,50,0.00,,,0.00,weatherlink.com 1.10,2013-08-23 18:58:00,
2013-08-23 15:13:00,89.0,68.0,30.06,NE,47,3.0,7.0,50,0.00,,,0.00,weatherlink.com 1.10,2013-08-23 19:13:00,
2013-08-23 15:28:00,88.0,67.0,30.06,NE,43,4.0,6.0,50,0.00,,,0.00,weatherlink.com 1.10,2013-08-23 19:28:00,
2013-08-23 15:43:00,87.9,67.0,30.05,NNE,30,2.0,8.0,50,0.00,,,0.00,weatherlink.com 1.10,2013-08-23 19:43:00,
2013-08-23 15:58:00,86.5,67.0,30.05,East,86,1.0,5.0,52,0.00,,,0.00,weatherlink.com 1.10,2013-08-23 19:58:00,
2013-08-23 16:13:00,87.2,67.0,30.05,NNW,338,3.0,8.0,52,0.00,,,0.00,weatherlink.com 1.10,2013-08-23 20:13:00,
2013-08-23 16:28:00,87.2,67.0,30.04,ENE,65,3.0,5.0,51,0.00,,,0.00,weatherlink.com 1.10,2013-08-23 20:28:00,
2013-08-23 16:44:00,87.8,66.0,30.04,East,98,6.0,9.0,49,0.00,,,0.00,weatherlink.com 1.10,2013-08-23 20:44:00,
2013-08-23 16:58:00,87.6,66.0,30.04,East,82,2.0,7.0,49,0.00,,,0.00,weatherlink.com 1.10,2013-08-23 20:58:00,
2013-08-23 17:13:00,87.9,66.0,30.04,East,81,6.0,7.0,48,0.00,,,0.00,weatherlink.com 1.10,2013-08-23 21:13:00,
2013-08-23 17:29:00,87.6,66.0,30.04,ENE,68,4.0,9.0,48,0.00,,,0.00,weatherlink.com 1.10,2013-08-23 21:29:00,
2013-08-23 18:14:00,87.5,65.0,30.05,NE,51,3.0,6.0,48,0.00,,,0.00,weatherlink.com 1.10,2013-08-23 22:14:00,
2013-08-23 18:29:00,87.9,66.0,30.05,North,4,2.0,5.0,48,0.00,,,0.00,weatherlink.com 1.10,2013-08-23 22:29:00,
2013-08-23 18:44:00,87.3,66.0,30.06,East,88,1.0,4.0,49,0.00,,,0.00,weatherlink.com 1.10,2013-08-23 22:44:00,
2013-08-23 19:14:00,86.5,66.0,30.05,NE,46,2.0,4.0,50,0.00,,,0.00,weatherlink.com 1.10,2013-08-23 23:14:00,
2013-08-23 19:31:00,86.0,67.0,30.05,ENE,63,0.0,4.0,53,0.00,,,0.00,weatherlink.com 1.10,2013-08-23 23:31:00,
2013-08-23 19:44:00,85.2,67.0,30.06,ENE,72,0.0,4.0,55,0.00,,,0.00,weatherlink.com 1.10,2013-08-23 23:44:00,
2013-08-23 20:29:00,82.0,67.0,30.07,East,87,1.0,4.0,61,0.00,,,0.00,weatherlink.com 1.10,2013-08-24 00:29:00,
2013-08-23 20:59:00,80.9,67.0,30.07,ENE,66,6.0,6.0,63,0.00,,,0.00,weatherlink.com 1.10,2013-08-24 00:59:00,
2013-08-23 21:14:00,80.4,67.0,30.08,ENE,64,2.0,3.0,64,0.00,,,0.00,weatherlink.com 1.10,2013-08-24 01:14:00,
2013-08-23 21:29:00,80.1,67.0,30.09,ENE,70,1.0,3.0,65,0.00,,,0.00,weatherlink.com 1.10,2013-08-24 01:29:00,
2013-08-23 21:44:00,79.6,67.0,30.10,ENE,64,3.0,4.0,66,0.00,,,0.00,weatherlink.com 1.10,2013-08-24 01:44:00,
2013-08-23 21:59:00,79.1,67.0,30.11,East,87,0.0,2.0,67,0.00,,,0.00,weatherlink.com 1.10,2013-08-24 01:59:00,
2013-08-23 22:14:00,78.5,68.0,30.11,ESE,108,0.0,1.0,69,0.00,,,0.00,weatherlink.com 1.10,2013-08-24 02:14:00,
2013-08-23 22:29:00,78.0,67.0,30.11,East,85,0.0,2.0,70,0.00,,,0.00,weatherlink.com 1.10,2013-08-24 02:29:00,
2013-08-23 22:44:00,77.3,68.0,30.12,NE,56,0.0,1.0,72,0.00,,,0.00,weatherlink.com 1.10,2013-08-24 02:44:00,
2013-08-23 22:59:00,76.2,68.0,30.12,ENE,70,0.0,1.0,75,0.00,,,0.00,weatherlink.com 1.10,2013-08-24 02:59:00,
2013-08-23 23:14:00,75.9,68.0,30.12,ENE,69,0.0,0.0,76,0.00,,,0.00,weatherlink.com 1.10,2013-08-24 03:14:00,
2013-08-23 23:29:00,75.5,68.0,30.12,ENE,70,0.0,1.0,77,0.00,,,0.00,weatherlink.com 1.10,2013-08-24 03:29:00,
2013-08-23 23:44:00,75.6,68.0,30.12,East,84,0.0,0.0,76,0.00,,,0.00,weatherlink.com 1.10,2013-08-24 03:44:00,
2013-08-23 23:59:00,75.3,68.0,30.13,East,84,0.0,0.0,77,0.00,,,0.00,weatherlink.com 1.10,2013-08-24 03:59:00,